| time (UTC) | temp F | wind direction | speed MPH | gust MPH | rain 1hr in | rain 24hr in | rain mn in | humidity % | barometer mb |
| 20260509230822 | 104 | 276 | 1.0 | 8.0 | 0.00 | 0.00 | 0.00 | 10 | 1006.8 |
| 20260509225818 | 104 | 285 | 2.0 | 8.0 | 0.00 | 0.00 | 0.00 | 10 | 1007.0 |
| 20260509224818 | 104 | 285 | 2.0 | 9.0 | 0.00 | 0.00 | 0.00 | 9 | 1007.3 |
| 20260509223815 | 104 | 233 | 3.0 | 9.0 | 0.00 | 0.00 | 0.00 | 10 | 1007.3 |
| 20260509222849 | 103 | 240 | 5.0 | 13.0 | 0.00 | 0.00 | 0.00 | 10 | 1007.5 |
| 20260509221842 | 103 | 227 | 2.0 | 11.0 | 0.00 | 0.00 | 0.00 | 10 | 1007.6 |
| 20260509220818 | 102 | 236 | 5.0 | 9.0 | 0.00 | 0.00 | 0.00 | 11 | 1007.8 |
| 20260509215818 | 103 | 232 | 5.0 | 10.0 | 0.00 | 0.00 | 0.00 | 9 | 1008.0 |
| 20260509214813 | 102 | 239 | 4.0 | 11.0 | 0.00 | 0.00 | 0.00 | 10 | 1008.1 |
| 20260509213829 | 102 | 210 | 5.0 | 11.0 | 0.00 | 0.00 | 0.00 | 10 | 1008.3 |
| 20260509212825 | 103 | 218 | 3.0 | 9.0 | 0.00 | 0.00 | 0.00 | 10 | 1008.5 |
| 20260509211819 | 102 | 188 | 4.0 | 12.0 | 0.00 | 0.00 | 0.00 | 11 | 1008.6 |
| 20260509210819 | 101 | 201 | 5.0 | 13.0 | 0.00 | 0.00 | 0.00 | 11 | 1008.8 |
| 20260509205817 | 102 | 285 | 3.0 | 10.0 | 0.00 | 0.00 | 0.00 | 11 | 1008.9 |
| 20260509204852 | 101 | 193 | 2.0 | 7.0 | 0.00 | 0.00 | 0.00 | 12 | 1009.1 |
| 20260509203827 | 102 | 312 | 1.0 | 8.0 | 0.00 | 0.00 | 0.00 | 13 | 1009.3 |
| 20260509202821 | 101 | 209 | 2.0 | 9.0 | 0.00 | 0.00 | 0.00 | 12 | 1009.5 |
| 20260509201821 | 101 | 327 | 2.0 | 9.0 | 0.00 | 0.00 | 0.00 | 13 | 1009.6 |
| 20260509200817 | 99 | 23 | 2.0 | 11.0 | 0.00 | 0.00 | 0.00 | 13 | 1009.9 |
| 20260509195831 | 99 | 75 | 0.0 | 9.0 | 0.00 | 0.00 | 0.00 | 13 | 1010.0 |
| 20260509194827 | 99 | 238 | 1.0 | 4.0 | 0.00 | 0.00 | 0.00 | 13 | 1010.0 |
| 20260509193823 | 98 | 208 | 2.0 | 9.0 | 0.00 | 0.00 | 0.00 | 14 | 1010.2 |
| 20260509192823 | 98 | 348 | 1.0 | 5.0 | 0.00 | 0.00 | 0.00 | 15 | 1010.3 |
| 20260509191819 | 98 | 177 | 4.0 | 8.0 | 0.00 | 0.00 | 0.00 | 14 | 1010.5 |
| 20260509190814 | 97 | 334 | 1.0 | 7.0 | 0.00 | 0.00 | 0.00 | 15 | 1010.6 |
| 20260509185829 | 97 | 202 | 2.0 | 4.0 | 0.00 | 0.00 | 0.00 | 15 | 1010.7 |
| 20260509184829 | 96 | 88 | 2.0 | 6.0 | 0.00 | 0.00 | 0.00 | 15 | 1010.8 |
| 20260509183845 | 97 | 265 | 2.0 | 4.0 | 0.00 | 0.00 | 0.00 | 15 | 1010.9 |
| 20260509182819 | 95 | 224 | 1.0 | 6.0 | 0.00 | 0.00 | 0.00 | 16 | 1011.1 |
| 20260509181814 | 94 | 204 | 2.0 | 4.0 | 0.00 | 0.00 | 0.00 | 16 | 1011.3 |
| 20260509180850 | 94 | 208 | 1.0 | 4.0 | 0.00 | 0.00 | 0.00 | 17 | 1011.4 |
| 20260509175824 | 94 | 177 | 1.0 | 6.0 | 0.00 | 0.00 | 0.00 | 17 | 1011.5 |
| 20260509174844 | 93 | 152 | 2.0 | 6.0 | 0.00 | 0.00 | 0.00 | 16 | 1011.6 |
| 20260509173839 | 92 | 116 | 3.0 | 8.0 | 0.00 | 0.00 | 0.00 | 18 | 1011.7 |
| 20260509172814 | 92 | 104 | 3.0 | 7.0 | 0.00 | 0.00 | 0.00 | 18 | 1011.7 |
| 20260509171828 | 91 | 73 | 2.0 | 6.0 | 0.00 | 0.00 | 0.00 | 18 | 1011.8 |
| 20260509170845 | 91 | 95 | 0.0 | 4.0 | 0.00 | 0.00 | 0.00 | 20 | 1011.7 |
| 20260509165824 | 90 | 184 | 2.0 | 4.0 | 0.00 | 0.00 | 0.00 | 20 | 1011.8 |
| 20260509164818 | 89 | 69 | 4.0 | 6.0 | 0.00 | 0.00 | 0.00 | 19 | 1011.8 |
| 20260509163814 | 89 | 175 | 1.0 | 4.0 | 0.00 | 0.00 | 0.00 | 20 | 1011.8 |
| 20260509162830 | 89 | 110 | 3.0 | 4.0 | 0.00 | 0.00 | 0.00 | 20 | 1011.8 |
| 20260509161828 | 87 | 144 | 0.0 | 4.0 | 0.00 | 0.00 | 0.00 | 21 | 1011.7 |
| 20260509160827 | 87 | 85 | 1.0 | 3.0 | 0.00 | 0.00 | 0.00 | 22 | 1011.7 |
| 20260509155844 | 85 | 65 | 1.0 | 4.0 | 0.00 | 0.00 | 0.00 | 22 | 1011.8 |
| 20260509154817 | 85 | 135 | 2.0 | 6.0 | 0.00 | 0.00 | 0.00 | 23 | 1011.8 |
| 20260509153814 | 84 | 106 | 1.0 | 4.0 | 0.00 | 0.00 | 0.00 | 24 | 1011.8 |
| 20260509152830 | 83 | 94 | 1.0 | 4.0 | 0.00 | 0.00 | 0.00 | 25 | 1011.8 |
| 20260509151848 | 83 | 61 | 1.0 | 4.0 | 0.00 | 0.00 | 0.00 | 25 | 1011.8 |
| 20260509150843 | 82 | 95 | 1.0 | 3.0 | 0.00 | 0.00 | 0.00 | 26 | 1011.7 |
| 20260509145816 | 81 | 139 | 0.0 | 3.0 | 0.00 | 0.00 | 0.00 | 26 | 1011.7 |
| 20260509144853 | 80 | 54 | 1.0 | 4.0 | 0.00 | 0.00 | 0.00 | 26 | 1011.7 |
| 20260509143827 | 80 | 60 | 1.0 | 3.0 | 0.00 | 0.00 | 0.00 | 27 | 1011.7 |
| 20260509142822 | 79 | 91 | 1.0 | 2.0 | 0.00 | 0.00 | 0.00 | 27 | 1011.6 |
| 20260509141821 | 78 | 81 | 1.0 | 3.0 | 0.00 | 0.00 | 0.00 | 28 | 1011.5 |
| 20260509140817 | 77 | 99 | 1.0 | 4.0 | 0.00 | 0.00 | 0.00 | 28 | 1011.5 |
| 20260509135832 | 76 | 102 | 1.0 | 4.0 | 0.00 | 0.00 | 0.00 | 29 | 1011.5 |
| 20260509134828 | 75 | 89 | 1.0 | 4.0 | 0.00 | 0.00 | 0.00 | 29 | 1011.4 |
| 20260509133827 | 74 | 60 | 1.0 | 6.0 | 0.00 | 0.00 | 0.00 | 30 | 1011.3 |
| 20260509132822 | 73 | 59 | 2.0 | 4.0 | 0.00 | 0.00 | 0.00 | 30 | 1011.1 |
| 20260509131837 | 73 | 58 | 1.0 | 3.0 | 0.00 | 0.00 | 0.00 | 30 | 1010.9 |
| 20260509130831 | 72 | 86 | 2.0 | 7.0 | 0.00 | 0.00 | 0.00 | 30 | 1010.8 |
| 20260509125827 | 72 | 66 | 2.0 | 4.0 | 0.00 | 0.00 | 0.00 | 30 | 1010.7 |
| 20260509124824 | 71 | 67 | 1.0 | 3.0 | 0.00 | 0.00 | 0.00 | 31 | 1010.7 |
| 20260509123822 | 71 | 54 | 3.0 | 4.0 | 0.00 | 0.00 | 0.00 | 31 | 1010.5 |
| 20260509122818 | 71 | 50 | 2.0 | 3.0 | 0.00 | 0.00 | 0.00 | 31 | 1010.4 |
| 20260509121834 | 71 | 64 | 0.0 | 1.0 | 0.00 | 0.00 | 0.00 | 31 | 1010.3 |
| 20260509120826 | 71 | 79 | 0.0 | 2.0 | 0.00 | 0.00 | 0.00 | 31 | 1010.1 |
| 20260509115828 | 71 | 47 | 0.0 | 2.0 | 0.00 | 0.00 | 0.00 | 31 | 1010.0 |
| 20260509114825 | 71 | 62 | 0.0 | 2.0 | 0.00 | 0.00 | 0.00 | 31 | 1010.0 |
| 20260509113821 | 71 | 56 | 1.0 | 2.0 | 0.00 | 0.00 | 0.00 | 31 | 1009.9 |
| 20260509112817 | 71 | 80 | 0.0 | 2.0 | 0.00 | 0.00 | 0.00 | 31 | 1010.0 |
| 20260509111852 | 72 | 71 | 0.0 | 2.0 | 0.00 | 0.00 | 0.00 | 31 | 1009.9 |
| 20260509110846 | 72 | 52 | 1.0 | 2.0 | 0.00 | 0.00 | 0.00 | 31 | 1009.9 |
| 20260509105825 | 72 | 76 | 0.0 | 1.0 | 0.00 | 0.00 | 0.00 | 31 | 1009.8 |
| 20260509104820 | 72 | 70 | 0.0 | 2.0 | 0.00 | 0.00 | 0.00 | 32 | 1009.7 |
| 20260509103815 | 73 | 77 | 0.0 | 2.0 | 0.00 | 0.00 | 0.00 | 33 | 1009.7 |
| 20260509102832 | 73 | 37 | 0.0 | 4.0 | 0.00 | 0.00 | 0.00 | 33 | 1009.7 |
| 20260509101831 | 73 | 110 | 0.0 | 2.0 | 0.00 | 0.00 | 0.00 | 34 | 1009.6 |
| 20260509100825 | 73 | 170 | 0.0 | 0.0 | 0.00 | 0.00 | 0.00 | 35 | 1009.6 |
| 20260509095820 | 73 | 88 | 0.0 | 0.0 | 0.00 | 0.00 | 0.00 | 34 | 1009.6 |
| 20260509094816 | 74 | 85 | 0.0 | 1.0 | 0.00 | 0.00 | 0.00 | 34 | 1009.6 |
| 20260509093831 | 75 | 61 | 0.0 | 2.0 | 0.00 | 0.00 | 0.00 | 33 | 1009.6 |
| 20260509092832 | 75 | 31 | 0.0 | 1.0 | 0.00 | 0.00 | 0.00 | 33 | 1009.6 |
| 20260509091847 | 75 | 57 | 0.0 | 0.0 | 0.00 | 0.00 | 0.00 | 32 | 1009.7 |
| 20260509090821 | 75 | 57 | 0.0 | 0.0 | 0.00 | 0.00 | 0.00 | 32 | 1009.7 |
| 20260509085817 | 75 | 57 | 0.0 | 0.0 | 0.00 | 0.00 | 0.00 | 32 | 1009.7 |
| 20260509084832 | 76 | 57 | 0.0 | 0.0 | 0.00 | 0.00 | 0.00 | 32 | 1009.6 |
| 20260509083831 | 76 | 57 | 0.0 | 0.0 | 0.00 | 0.00 | 0.00 | 31 | 1009.5 |
| 20260509082827 | 76 | 143 | 0.0 | 0.0 | 0.00 | 0.00 | 0.00 | 31 | 1009.6 |
| 20260509081825 | 77 | 82 | 0.0 | 0.0 | 0.00 | 0.00 | 0.00 | 31 | 1009.6 |
| 20260509080820 | 78 | 53 | 0.0 | 0.0 | 0.00 | 0.00 | 0.00 | 29 | 1009.5 |
| 20260509075819 | 78 | 52 | 0.0 | 0.0 | 0.00 | 0.00 | 0.00 | 29 | 1009.5 |
| 20260509074815 | 79 | 52 | 0.0 | 1.0 | 0.00 | 0.00 | 0.00 | 29 | 1009.4 |
| 20260509073850 | 79 | 53 | 0.0 | 2.0 | 0.00 | 0.00 | 0.00 | 28 | 1009.5 |
| 20260509072825 | 79 | 46 | 0.0 | 1.0 | 0.00 | 0.00 | 0.00 | 27 | 1009.5 |
| 20260509071822 | 79 | 51 | 1.0 | 2.0 | 0.00 | 0.00 | 0.00 | 27 | 1009.4 |
| 20260509070818 | 79 | 44 | 0.0 | 0.0 | 0.00 | 0.00 | 0.00 | 28 | 1009.4 |
| 20260509065819 | 79 | 183 | 0.0 | 0.0 | 0.00 | 0.00 | 0.00 | 29 | 1009.3 |
| 20260509064815 | 79 | 184 | 0.0 | 0.0 | 0.00 | 0.00 | 0.00 | 27 | 1009.3 |
| 20260509063830 | 80 | 184 | 0.0 | 0.0 | 0.00 | 0.00 | 0.00 | 26 | 1009.2 |
| 20260509062827 | 81 | 184 | 0.0 | 0.0 | 0.00 | 0.00 | 0.00 | 25 | 1009.3 |
| 20260509061825 | 81 | 186 | 0.0 | 0.0 | 0.00 | 0.00 | 0.00 | 25 | 1009.2 |
| 20260509060822 | 82 | 186 | 0.0 | 0.0 | 0.00 | 0.00 | 0.00 | 24 | 1009.2 |
| 20260509055818 | 81 | 186 | 0.0 | 0.0 | 0.00 | 0.00 | 0.00 | 24 | 1009.1 |
| 20260509054814 | 83 | 186 | 0.0 | 0.0 | 0.00 | 0.00 | 0.00 | 23 | 1009.1 |
| 20260509053831 | 84 | 186 | 0.0 | 0.0 | 0.00 | 0.00 | 0.00 | 22 | 1009.1 |
| 20260509052832 | 85 | 186 | 0.0 | 0.0 | 0.00 | 0.00 | 0.00 | 22 | 1009.1 |
| 20260509051827 | 86 | 186 | 0.0 | 0.0 | 0.00 | 0.00 | 0.00 | 21 | 1009.1 |
| 20260509050821 | 87 | 186 | 0.0 | 1.0 | 0.00 | 0.00 | 0.00 | 20 | 1009.1 |
| 20260509045816 | 88 | 202 | 0.0 | 0.0 | 0.00 | 0.00 | 0.00 | 19 | 1009.0 |
| 20260509044816 | 89 | 200 | 0.0 | 2.0 | 0.00 | 0.00 | 0.00 | 19 | 1009.0 |
| 20260509043813 | 89 | 206 | 0.0 | 1.0 | 0.00 | 0.00 | 0.00 | 19 | 1008.9 |
| 20260509042828 | 89 | 204 | 1.0 | 3.0 | 0.00 | 0.00 | 0.00 | 19 | 1008.8 |
| 20260509041824 | 90 | 206 | 0.0 | 2.0 | 0.00 | 0.00 | 0.00 | 18 | 1008.8 |
| 20260509040818 | 90 | 212 | 1.0 | 4.0 | 0.00 | 0.00 | 0.00 | 18 | 1008.7 |
| 20260509035817 | 90 | 210 | 1.0 | 3.0 | 0.00 | 0.00 | 0.00 | 18 | 1008.4 |
| 20260509034812 | 90 | 210 | 1.0 | 3.0 | 0.00 | 0.00 | 0.00 | 17 | 1008.3 |
| 20260509033828 | 90 | 197 | 0.0 | 1.0 | 0.00 | 0.00 | 0.00 | 18 | 1008.2 |
| 20260509032826 | 90 | 200 | 0.0 | 1.0 | 0.00 | 0.00 | 0.00 | 18 | 1008.0 |
| 20260509031818 | 91 | 200 | 0.0 | 0.0 | 0.00 | 0.00 | 0.00 | 16 | 1008.0 |
| 20260509030815 | 92 | 200 | 0.0 | 1.0 | 0.00 | 0.00 | 0.00 | 16 | 1007.8 |
| 20260509025828 | 93 | 205 | 0.0 | 1.0 | 0.00 | 0.00 | 0.00 | 16 | 1007.7 |
| 20260509024820 | 93 | 213 | 0.0 | 0.0 | 0.00 | 0.00 | 0.00 | 15 | 1007.7 |
| 20260509023812 | 94 | 206 | 0.0 | 1.0 | 0.00 | 0.00 | 0.00 | 15 | 1007.6 |
| 20260509022825 | 95 | 209 | 1.0 | 5.0 | 0.00 | 0.00 | 0.00 | 14 | 1007.5 |
| 20260509021823 | 96 | 227 | 1.0 | 7.0 | 0.00 | 0.00 | 0.00 | 14 | 1007.4 |
| 20260509020817 | 96 | 223 | 3.0 | 7.0 | 0.00 | 0.00 | 0.00 | 13 | 1007.3 |
| 20260509015829 | 97 | 237 | 3.0 | 9.0 | 0.00 | 0.00 | 0.00 | 13 | 1007.3 |
| 20260509014823 | 97 | 229 | 2.0 | 9.0 | 0.00 | 0.00 | 0.00 | 13 | 1007.3 |
| 20260509013815 | 98 | 219 | 5.0 | 9.0 | 0.00 | 0.00 | 0.00 | 13 | 1007.1 |
| 20260509012830 | 98 | 227 | 3.0 | 14.0 | 0.00 | 0.00 | 0.00 | 13 | 1007.3 |
| 20260509011825 | 99 | 239 | 5.0 | 12.0 | 0.00 | 0.00 | 0.00 | 13 | 1007.3 |
| 20260509010816 | 99 | 227 | 6.0 | 10.0 | 0.00 | 0.00 | 0.00 | 13 | 1007.3 |
| 20260509005829 | 99 | 235 | 4.0 | 11.0 | 0.00 | 0.00 | 0.00 | 13 | 1007.4 |
| 20260509004824 | 99 | 222 | 4.0 | 11.0 | 0.00 | 0.00 | 0.00 | 13 | 1007.5 |
| 20260509003820 | 99 | 227 | 4.0 | 10.0 | 0.00 | 0.00 | 0.00 | 13 | 1007.6 |
| 20260509002812 | 99 | 270 | 3.0 | 11.0 | 0.00 | 0.00 | 0.00 | 13 | 1007.7 |
| 20260509001825 | 99 | 225 | 2.0 | 13.0 | 0.00 | 0.00 | 0.00 | 13 | 1007.7 |
| 20260509000837 | 99 | 235 | 5.0 | 10.0 | 0.00 | 0.00 | 0.00 | 14 | 1007.8 |
| 20260508235828 | 100 | 222 | 3.0 | 9.0 | 0.00 | 0.00 | 0.00 | 13 | 1007.8 |
| 20260508234822 | 99 | 233 | 6.0 | 14.0 | 0.00 | 0.00 | 0.00 | 13 | 1007.9 |
| 20260508233820 | 99 | 216 | 6.0 | 15.0 | 0.00 | 0.00 | 0.00 | 12 | 1008.0 |
| 20260508232832 | 99 | 235 | 5.0 | 13.0 | 0.00 | 0.00 | 0.00 | 13 | 1008.0 |
| 20260508231823 | 100 | 239 | 4.0 | 12.0 | 0.00 | 0.00 | 0.00 | 12 | 1008.1 |